• In Hungary
  • List of Countries
  • For 7 days
  • Water Temperature
  • Satellite Maps
  • Weather Map
  • News
  • Weather Widgets
  • user-avatar
    Login

    Hourly Weather Harare

    Today, 22 September, Saturday

    Time Temperature Precipitation Wind Pressure Humidity
    00:00 +18°C° 0 mm 2 mps 640 mmHg 50%
    01:00 +17°C° 0 mm 2 mps 640 mmHg 53%
    02:00 +16°C° 0 mm 2 mps 639 mmHg 56%
    03:00 +16°C° 0 mm 2 mps 639 mmHg 58%
    04:00 +15°C° 0 mm 2 mps 639 mmHg 59%
    05:00 +15°C° 0 mm 2 mps 639 mmHg 61%
    06:00 +17°C° 0 mm 3 mps 640 mmHg 53%
    07:00 +19°C° 0 mm 3 mps 641 mmHg 46%
    08:00 +21°C° 0 mm 4 mps 642 mmHg 38%
    09:00 +25°C° 0 mm 4 mps 642 mmHg 31%
    10:00 +27°C° 0 mm 3 mps 643 mmHg 25%
    11:00 +29°C° 0 mm 3 mps 643 mmHg 18%
    12:00 +30°C° 0 mm 3 mps 643 mmHg 16%
    13:00 +31°C° 0 mm 3 mps 642 mmHg 14%
    14:00 +33°C° 0 mm 3 mps 642 mmHg 11%
    15:00 +31°C° 0 mm 3 mps 641 mmHg 12%
    16:00 +30°C° 0 mm 3 mps 641 mmHg 13%
    17:00 +29°C° 0 mm 4 mps 641 mmHg 14%
    18:00 +27°C° 0 mm 3 mps 640 mmHg 17%
    19:00 +25°C° 0 mm 3 mps 640 mmHg 20%
    20:00 +21°C° 0 mm 3 mps 640 mmHg 23%
    21:00 +21°C° 0 mm 3 mps 640 mmHg 26%
    22:00 +20°C° 0 mm 3 mps 641 mmHg 28%
    23:00 +19°C° 0 mm 3 mps 641 mmHg 31%

    Tomorrow, 23 September, Sunday

    Time Temperature Precipitation Wind Pressure Humidity
    00:00 +18°C° 0 mm 3 mps 640 mmHg 34%
    01:00 +18°C° 0 mm 3 mps 640 mmHg 36%
    02:00 +17°C° 0 mm 3 mps 640 mmHg 39%
    03:00 +16°C° 0 mm 3 mps 640 mmHg 44%
    04:00 +16°C° 0 mm 2 mps 640 mmHg 48%
    05:00 +15°C° 0 mm 2 mps 639 mmHg 53%
    06:00 +17°C° 0 mm 3 mps 640 mmHg 47%
    07:00 +19°C° 0 mm 3 mps 641 mmHg 41%
    08:00 +21°C° 0 mm 4 mps 642 mmHg 35%
    09:00 +23°C° 0 mm 4 mps 643 mmHg 29%
    10:00 +26°C° 0 mm 4 mps 643 mmHg 22%
    11:00 +29°C° 0 mm 3 mps 643 mmHg 16%
    12:00 +30°C° 0 mm 3 mps 643 mmHg 14%
    13:00 +30°C° 0 mm 3 mps 642 mmHg 13%
    14:00 +31°C° 0 mm 3 mps 641 mmHg 11%
    15:00 +31°C° 0 mm 3 mps 641 mmHg 11%
    16:00 +30°C° 0 mm 3 mps 641 mmHg 12%
    17:00 +29°C° 0 mm 4 mps 640 mmHg 12%
    18:00 +27°C° 0 mm 3 mps 640 mmHg 17%
    19:00 +24°C° 0 mm 3 mps 640 mmHg 21%
    20:00 +21°C° 0 mm 3 mps 640 mmHg 25%
    21:00 +20°C° 0 mm 3 mps 640 mmHg 29%
    22:00 +19°C° 0 mm 3 mps 640 mmHg 32%
    23:00 +18°C° 0 mm 4 mps 641 mmHg 36%

    Day after tomorrow, 24 September, Monday

    Time Temperature Precipitation Wind Pressure Humidity
    00:00 +18°C° 0 mm 3 mps 640 mmHg 41%
    01:00 +17°C° 0 mm 3 mps 639 mmHg 45%
    02:00 +16°C° 0 mm 3 mps 639 mmHg 49%
    03:00 +16°C° 0 mm 2 mps 639 mmHg 49%
    04:00 +15°C° 0 mm 2 mps 638 mmHg 49%
    05:00 +15°C° 0 mm 2 mps 638 mmHg 49%
    06:00 +17°C° 0 mm 3 mps 639 mmHg 46%
    07:00 +19°C° 0 mm 4 mps 640 mmHg 43%
    08:00 +22°C° 0 mm 4 mps 641 mmHg 40%
    09:00 +25°C° 0 mm 4 mps 642 mmHg 35%
    10:00 +27°C° 0 mm 4 mps 642 mmHg 30%
    11:00 +29°C° 0 mm 4 mps 642 mmHg 25%
    12:00 +30°C° 0 mm 3 mps 642 mmHg 23%
    13:00 +31°C° 0 mm 3 mps 641 mmHg 21%
    14:00 +33°C° 0 mm 3 mps 640 mmHg 19%
    15:00 +31°C° 0 mm 3 mps 640 mmHg 20%
    16:00 +30°C° 0 mm 3 mps 639 mmHg 21%
    17:00 +29°C° 0 mm 4 mps 639 mmHg 23%
    18:00 +27°C° 0 mm 3 mps 639 mmHg 27%
    19:00 +25°C° 0 mm 3 mps 639 mmHg 32%
    20:00 +22°C° 0 mm 3 mps 639 mmHg 37%
    21:00 +22°C° 0 mm 3 mps 639 mmHg 39%
    22:00 +21°C° 0 mm 3 mps 640 mmHg 42%
    23:00 +21°C° 0 mm 3 mps 640 mmHg 45%

    25 September, Tuesday

    Time Temperature Precipitation Wind Pressure Humidity
    00:00 +20°C° 0 mm 3 mps 639 mmHg 47%
    01:00 +19°C° 0 mm 3 mps 639 mmHg 48%
    02:00 +19°C° 0 mm 3 mps 638 mmHg 50%
    03:00 +18°C° 0 mm 3 mps 638 mmHg 51%
    04:00 +17°C° 0 mm 3 mps 638 mmHg 53%
    05:00 +17°C° 0 mm 3 mps 638 mmHg 54%
    06:00 +19°C° 0 mm 3 mps 639 mmHg 50%
    07:00 +20°C° 0 mm 4 mps 640 mmHg 46%
    08:00 +22°C° 0 mm 5 mps 641 mmHg 42%
    09:00 +25°C° 0 mm 4 mps 641 mmHg 36%
    10:00 +28°C° 0 mm 4 mps 642 mmHg 30%
    11:00 +30°C° 0 mm 4 mps 642 mmHg 24%
    12:00 +32°C° 0 mm 4 mps 641 mmHg 21%
    13:00 +33°C° 0 mm 3 mps 641 mmHg 19%
    14:00 +33°C° 0 mm 3 mps 640 mmHg 17%
    15:00 +33°C° 0 mm 3 mps 640 mmHg 18%
    16:00 +31°C° 0 mm 3 mps 639 mmHg 19%
    17:00 +30°C° 0 mm 4 mps 639 mmHg 20%
    18:00 +28°C° 0 mm 3 mps 639 mmHg 24%
    19:00 +26°C° 0 mm 3 mps 639 mmHg 27%
    20:00 +24°C° 0 mm 3 mps 639 mmHg 30%
    21:00 +24°C° 0 mm 3 mps 639 mmHg 32%
    22:00 +22°C° 0 mm 3 mps 639 mmHg 33%
    23:00 +21°C° 0 mm 3 mps 639 mmHg 35%

    26 September, Wednesday

    Time Temperature Precipitation Wind Pressure Humidity
    00:00 +21°C° 0 mm 3 mps 639 mmHg 36%
    01:00 +20°C° 0 mm 3 mps 638 mmHg 38%
    02:00 +20°C° 0 mm 2 mps 638 mmHg 39%
    03:00 +19°C° 0 mm 2 mps 638 mmHg 40%
    04:00 +19°C° 0 mm 3 mps 638 mmHg 42%
    05:00 +19°C° 0 mm 3 mps 638 mmHg 43%
    06:00 +21°C° 0 mm 3 mps 639 mmHg 39%
    07:00 +23°C° 0 mm 4 mps 640 mmHg 35%
    08:00 +26°C° 0 mm 4 mps 641 mmHg 32%
    09:00 +28°C° 0 mm 4 mps 642 mmHg 28%
    10:00 +30°C° 0 mm 3 mps 642 mmHg 24%
    11:00 +33°C° 0 mm 3 mps 642 mmHg 20%
    12:00 +34°C° 0 mm 3 mps 641 mmHg 19%
    13:00 +35°C° 0 mm 3 mps 641 mmHg 17%
    14:00 +36°C° 0 mm 3 mps 640 mmHg 16%
    15:00 +35°C° 0 mm 3 mps 640 mmHg 17%
    16:00 +34°C° 0 mm 3 mps 639 mmHg 18%
    17:00 +33°C° 0 mm 3 mps 639 mmHg 19%
    18:00 +30°C° 0 mm 3 mps 639 mmHg 21%
    19:00 +29°C° 0 mm 3 mps 640 mmHg 22%
    20:00 +28°C° 0 mm 3 mps 640 mmHg 24%
    21:00 +26°C° 0 mm 3 mps 640 mmHg 28%
    22:00 +25°C° 0 mm 3 mps 640 mmHg 31%
    23:00 +24°C° 0 mm 2 mps 640 mmHg 34%

    27 September, Thursday

    Time Temperature Precipitation Wind Pressure Humidity
    00:00 +23°C° 0 mm 2 mps 639 mmHg 36%
    01:00 +22°C° 0 mm 3 mps 639 mmHg 38%
    02:00 +21°C° 0 mm 3 mps 639 mmHg 40%
    03:00 +21°C° 0 mm 3 mps 639 mmHg 42%
    04:00 +20°C° 0 mm 3 mps 639 mmHg 45%
    05:00 +20°C° 0 mm 3 mps 640 mmHg 47%
    06:00 +22°C° 0 mm 4 mps 641 mmHg 42%
    07:00 +23°C° 0 mm 4 mps 642 mmHg 37%
    08:00 +26°C° 0 mm 5 mps 643 mmHg 32%
    09:00 +28°C° 0 mm 5 mps 643 mmHg 28%
    10:00 +30°C° 0 mm 5 mps 643 mmHg 25%
    11:00 +32°C° 0 mm 5 mps 643 mmHg 22%
    12:00 +32°C° 0 mm 5 mps 643 mmHg 22%
    13:00 +33°C° 0 mm 5 mps 642 mmHg 21%
    14:00 +33°C° 0 mm 5 mps 641 mmHg 20%
    15:00 +32°C° 0 mm 5 mps 641 mmHg 22%
    16:00 +30°C° 0 mm 5 mps 641 mmHg 24%
    17:00 +28°C° 0 mm 4 mps 641 mmHg 26%
    18:00 +27°C° 0 mm 4 mps 641 mmHg 30%
    19:00 +26°C° 0 mm 4 mps 641 mmHg 34%
    20:00 +23°C° 0 mm 4 mps 641 mmHg 38%
    21:00 +22°C° 0 mm 4 mps 641 mmHg 41%
    22:00 +21°C° 0 mm 3 mps 641 mmHg 44%
    23:00 +20°C° 0 mm 3 mps 641 mmHg 46%
    Show more